Time,TemperatureF,DewpointF,PressureIn,WindDirection,WindDirectionDegrees,WindSpeedMPH,WindSpeedGustMPH,Humidity,HourlyPrecipIn,Conditions,Clouds,dailyrainin,SoftwareType,DateUTC
2013-08-23 00:00:00,70.2,68.1,30.02,NNE,26,0.0,0.0,93,0.00,,---,0.00,VWS V14.01,2013-08-23 04:00:00,
2013-08-23 01:00:00,70.1,68.3,30.03,NNE,26,0.0,0.0,94,0.00,,---,0.00,VWS V14.01,2013-08-23 05:00:00,
2013-08-23 03:00:00,70.9,69.1,30.02,NNE,26,0.0,0.0,94,0.00,,---,0.00,VWS V14.01,2013-08-23 07:00:00,
2013-08-23 04:00:00,70.4,68.3,30.02,NNE,27,0.0,0.0,93,0.00,,---,0.00,VWS V14.01,2013-08-23 08:00:00,
2013-08-23 05:00:00,69.9,68.1,30.01,NNE,26,0.0,0.0,94,0.00,,---,0.00,VWS V14.01,2013-08-23 09:00:00,
2013-08-23 06:00:00,69.4,67.9,30.02,NNE,27,0.0,0.0,95,0.00,,---,0.00,VWS V14.01,2013-08-23 10:00:00,
2013-08-23 07:00:00,69.0,67.8,30.05,NNE,27,0.0,0.0,96,0.00,,---,0.00,VWS V14.01,2013-08-23 11:00:00,
2013-08-23 08:00:00,68.8,67.3,30.06,NNE,26,0.0,0.0,95,0.00,,---,0.00,VWS V14.01,2013-08-23 12:00:00,
2013-08-23 09:00:00,70.7,67.9,30.06,NNE,29,0.0,0.0,91,0.00,,---,0.00,VWS V14.01,2013-08-23 13:00:00,
2013-08-23 11:00:00,75.5,68.5,30.07,NE,54,0.0,0.0,79,0.00,,---,0.00,VWS V14.01,2013-08-23 15:00:00,
2013-08-23 12:00:00,79.9,70.5,30.07,NNE,14,0.0,0.0,73,0.00,,---,0.00,VWS V14.01,2013-08-23 16:00:00,
2013-08-23 13:00:00,82.6,70.1,30.07,NE,40,0.0,0.0,66,0.00,,---,0.00,VWS V14.01,2013-08-23 17:00:00,
2013-08-23 14:00:00,85.1,69.7,30.06,NNW,333,0.0,0.0,60,0.00,,---,0.00,VWS V14.01,2013-08-23 18:00:00,
2013-08-23 15:00:00,85.0,69.6,30.05,NE,35,0.0,0.0,60,0.00,,---,0.00,VWS V14.01,2013-08-23 19:00:00,
2013-08-23 16:00:00,86.7,69.1,30.03,ENE,61,0.0,0.0,56,0.00,,---,0.00,VWS V14.01,2013-08-23 20:00:00,
2013-08-23 17:00:00,86.5,69.5,30.02,NE,38,0.0,0.0,57,0.00,,---,0.00,VWS V14.01,2013-08-23 21:00:00,
2013-08-23 19:00:00,84.5,68.6,30.03,NE,41,0.0,0.0,59,0.00,,---,0.00,VWS V14.01,2013-08-23 23:00:00,
2013-08-23 20:00:00,81.0,69.4,30.04,NE,39,0.0,0.0,68,0.00,,---,0.00,VWS V14.01,2013-08-24 00:00:00,
2013-08-23 21:00:00,77.3,68.8,30.05,NNE,25,0.0,0.0,75,0.00,,---,0.00,VWS V14.01,2013-08-24 01:00:00,
2013-08-23 22:00:00,73.1,68.0,30.07,NNE,25,0.0,0.0,84,0.00,,---,0.00,VWS V14.01,2013-08-24 02:00:00,
2013-08-23 23:00:00,70.3,65.6,30.08,NNE,25,0.0,0.0,85,0.00,,---,0.00,VWS V14.01,2013-08-24 03:00:00,